sat.trackr.live / text

‹ back to catalog

STARLINK-34858

NORAD 65023 · 2025-161J

PAYLOAD ACTIVE UNKNOWN

§ Identity

Operator
Country
US
Launch date
2025-07-30
Launch site
AFWTR
Launch vehicle
Mass (kg)
RCS (m²)

Purposes: comms

External: N2YO · Heavens-Above · Gunter

§ Orbital elements

Epoch: 2026-09-20T21:26:40.037280Z

Period
93.85 min
Inclination
53.1582°
Eccentricity
0.0001276
Mean motion
15.34411789 rev/d
Perigee alt
461.8 km
Apogee alt
463.5 km
Semi-major
6,840.8 km
B*
6.8741e-4
RAAN
105.5713°
Arg perigee
80.4230°
Mean anomaly
279.6916°
Rev number
6,523

§ Raw data

STARLINK-348581 65023U 25161J   26263.89351895  .00022929  00000+0  68741-3 0  99902 65023  53.1582 105.5713 0001276  80.4230 279.6916 15.34411789 65236

JSON: /api/v1/satellites/65023 · /tle

For live sub-satellite position, see the globe view (requires WebGL).

§ Visibility from observer

Set your observer location to see the next 7 days of passes ≥ 10°. The values pass through the URL so the page stays shareable.

No JS? Fill the form by hand. The geolocation button needs JavaScript.